Location: Paris
(18.5000°N, 73.9167°W)
Time: 11:22:57
(UTC+00:00)

Cosmos 1674 Rocket - Pass Details

Date: 18 April 2024
Orbit: 600 x 626 km, 82.5° (Epoch: 25 May)

Event Time Altitude Azimuth Distance (km) Brightness Sun altitude
Rises 23:32:01 0° 359° (N) 2,905 7.2 -5.1°
Reaches altitude 10° 23:34:16 10° 1° (N) 1,996 6.3 -5.6°
Maximum altitude 23:38:40 69° 85° (E) 667 3.5 -6.6°
Drops below altitude 10° 23:43:03 10° 169° (SSE) 1,983 5.9 -7.6°
Sets 23:45:17 0° 171° (S) 2,884 6.7 -8.1°
